DW7980 Weather Reports


Display with metric or nautical units.
time (UTC)temp
F
wind
direction
speed
MPH
gust
MPH
rain 1hr
in
rain 24hr
in
rain mn
in
humidity
%
barometer
mb
20260509214619 77 40 1.0 3.0 0.00 0.00 0.00 48 1017.6
20260509214040 77 13 1.0 3.0 0.00 0.00 0.00 48 1017.6
20260509213540 77 0 1.0 3.0 0.00 0.00 0.00 47 1017.5
20260509213048 77 42 1.0 4.0 0.00 0.00 0.00 45 1017.6
20260509212540 77 325 2.0 4.0 0.00 0.00 0.00 45 1017.7
20260509212048 76 0 1.0 4.0 0.00 0.00 0.00 52 1017.7
20260509211547 76 21 1.0 4.0 0.00 0.00 0.00 48 1017.8
20260509211040 76 59 1.0 5.0 0.00 0.00 0.00 49 1017.9
20260509210538 76 0 1.0 5.0 0.00 0.00 0.00 45 1017.8
20260509210049 78 18 0.0 3.0 0.00 0.00 0.00 46 1017.7
20260509205542 78 46 0.0 4.0 0.00 0.00 0.00 45 1017.8
20260509205040 79 322 1.0 4.0 0.00 0.00 0.00 48 1017.8
20260509204549 78 92 1.0 4.0 0.00 0.00 0.00 46 1017.9
20260509204041 78 55 1.0 5.0 0.00 0.00 0.00 51 1017.9
20260509203539 78 77 2.0 5.0 0.00 0.00 0.00 49 1018.1
20260509203057 77 77 1.0 4.0 0.00 0.00 0.00 47 1018.1
20260509202543 77 336 1.0 6.0 0.00 0.00 0.00 47 1018.1
20260509202040 76 57 2.0 6.0 0.00 0.00 0.00 51 1018.1
20260509201548 76 29 1.0 7.0 0.00 0.00 0.00 54 1018.2
20260509201039 75 29 2.0 7.0 0.00 0.00 0.00 51 1018.3
20260509200541 76 88 2.0 5.0 0.00 0.00 0.00 49 1018.3
20260509200047 76 347 0.0 3.0 0.00 0.00 0.00 46 1018.4
20260509195541 76 82 1.0 5.0 0.00 0.00 0.00 50 1018.4
20260509195037 76 32 1.0 5.0 0.00 0.00 0.00 49 1018.5
20260509194551 76 58 3.0 5.0 0.00 0.00 0.00 49 1018.6
20260509194043 76 55 2.0 5.0 0.00 0.00 0.00 49 1018.6
20260509193536 76 286 1.0 4.0 0.00 0.00 0.00 47 1018.6
20260509193055 75 11 1.0 4.0 0.00 0.00 0.00 49 1018.6
20260509192537 75 360 1.0 3.0 0.00 0.00 0.00 52 1018.7
20260509192043 74 28 2.0 5.0 0.00 0.00 0.00 54 1018.7
20260509191557 73 42 2.0 5.0 0.00 0.00 0.00 56 1018.7
20260509191036 74 57 3.0 5.0 0.00 0.00 0.00 50 1018.8
20260509190541 74 355 1.0 5.0 0.00 0.00 0.00 56 1018.8
20260509190056 74 46 2.0 5.0 0.00 0.00 0.00 54 1018.9
20260509185541 75 67 2.0 4.0 0.00 0.00 0.00 52 1018.9
20260509185038 74 30 1.0 3.0 0.00 0.00 0.00 55 1019.1
20260509184557 73 336 1.0 5.0 0.00 0.00 0.00 52 1019.4
20260509184038 74 41 1.0 5.0 0.00 0.00 0.00 56 1019.4
20260509183537 73 41 2.0 5.0 0.00 0.00 0.00 53 1019.5
20260509183056 74 74 1.0 4.0 0.00 0.00 0.00 55 1019.5
20260509182539 73 49 1.0 4.0 0.00 0.00 0.00 57 1019.5
20260509182040 73 49 1.0 4.0 0.00 0.00 0.00 55 1019.6
20260509181549 72 26 1.0 5.0 0.00 0.00 0.00 54 1019.6
20260509181038 72 41 1.0 5.0 0.00 0.00 0.00 57 1019.6
20260509180538 71 57 2.0 5.0 0.00 0.00 0.00 56 1019.6
20260509180045 71 296 2.0 4.0 0.00 0.00 0.00 59 1019.5
20260509175538 70 338 0.0 2.0 0.00 0.00 0.00 63 1019.6
20260509175038 69 338 0.0 3.0 0.00 0.00 0.00 66 1019.7
20260509174559 68 0 1.0 4.0 0.00 0.00 0.00 67 1019.7
20260509174037 67 352 1.0 5.0 0.00 0.00 0.00 68 1019.8
20260509173537 66 0 1.0 5.0 0.00 0.00 0.00 67 1019.8
20260509173051 66 338 0.0 4.0 0.00 0.00 0.00 69 1020.0
20260509172540 67 300 1.0 4.0 0.00 0.00 0.00 63 1020.0
20260509172040 66 340 0.0 4.0 0.00 0.00 0.00 71 1020.2
20260509171547 65 315 1.0 4.0 0.00 0.00 0.00 71 1020.2
20260509171041 64 54 0.0 4.0 0.00 0.00 0.00 74 1020.3
20260509170538 63 360 1.0 4.0 0.00 0.00 0.00 74 1020.3
20260509170045 62 317 1.0 3.0 0.00 0.00 0.00 74 1020.3
20260509165539 61 321 0.0 3.0 0.00 0.00 0.00 79 1020.4
20260509165041 60 0 1.0 3.0 0.00 0.00 0.00 78 1020.4
20260509164546 59 0 1.0 3.0 0.00 0.00 0.00 80 1020.6
20260509164038 58 293 1.0 4.0 0.00 0.00 0.00 80 1020.6
20260509163537 58 56 1.0 4.0 0.00 0.00 0.00 80 1020.7
20260509163048 58 324 1.0 4.0 0.00 0.00 0.00 79 1020.9
20260509162540 57 33 1.0 3.0 0.00 0.00 0.00 81 1021.0
20260509162041 57 333 0.0 3.0 0.00 0.00 0.00 82 1021.0
20260509161552 57 31 1.0 3.0 0.00 0.00 0.00 83 1021.0
20260509161039 56 327 0.0 3.0 0.00 0.00 0.00 83 1021.1
20260509160538 56 328 0.0 2.0 0.00 0.00 0.00 84 1021.1
20260509160051 56 304 0.0 3.0 0.00 0.00 0.00 83 1021.0
20260509155539 55 304 1.0 3.0 0.00 0.00 0.00 84 1021.0
20260509155040 55 0 0.0 3.0 0.00 0.00 0.00 85 1021.0
20260509154549 55 0 1.0 3.0 0.00 0.00 0.00 85 1021.1
20260509154038 54 111 1.0 3.0 0.00 0.00 0.00 85 1021.0
20260509153538 54 111 2.0 3.0 0.00 0.00 0.00 86 1021.2
20260509153100 54 112 0.0 2.0 0.00 0.00 0.00 86 1021.3
20260509152541 53 112 0.0 2.0 0.00 0.00 0.00 86 1021.4
20260509152040 53 0 0.0 3.0 0.00 0.00 0.00 87 1021.5
20260509151550 53 112 1.0 3.0 0.00 0.00 0.00 87 1021.5
20260509151040 52 0 0.0 1.0 0.00 0.00 0.00 87 1021.6
20260509150540 52 0 0.0 3.0 0.00 0.00 0.00 87 1021.7
20260509150044 52 0 0.0 3.0 0.00 0.00 0.00 88 1021.7
20260509145538 51 112 1.0 3.0 0.00 0.00 0.00 89 1021.5
20260509145038 51 0 1.0 2.0 0.00 0.00 0.00 90 1021.6
20260509144547 50 0 1.0 2.0 0.00 0.00 0.00 90 1021.5
20260509144040 49 183 0.0 2.0 0.00 0.00 0.00 90 1021.5
20260509143537 49 0 0.0 0.0 0.00 0.00 0.00 90 1021.5
20260509143049 48 0 0.0 0.0 0.00 0.00 0.00 90 1021.6
20260509142538 47 0 0.0 0.0 0.00 0.00 0.00 90 1021.6
20260509142039 47 0 0.0 0.0 0.00 0.00 0.00 90 1021.7
20260509141547 46 0 0.0 0.0 0.00 0.00 0.00 90 1021.6
20260509141038 46 0 0.0 0.0 0.00 0.00 0.00 90 1021.5
20260509140537 46 0 0.0 0.0 0.00 0.00 0.00 90 1021.5
20260509140045 45 0 0.0 0.0 0.00 0.00 0.00 90 1021.5
20260509135543 45 0 0.0 0.0 0.00 0.00 0.00 89 1021.5
20260509135042 45 0 0.0 0.0 0.00 0.00 0.00 89 1021.5
20260509134548 45 0 0.0 0.0 0.00 0.00 0.00 89 1021.4
20260509134040 45 0 0.0 0.0 0.00 0.00 0.00 89 1021.4
20260509133537 45 0 0.0 0.0 0.00 0.00 0.00 89 1021.4
20260509133046 45 0 0.0 0.0 0.00 0.00 0.00 89 1021.4
20260509132538 45 0 0.0 0.0 0.00 0.00 0.00 89 1021.4
20260509132040 45 0 0.0 0.0 0.00 0.00 0.00 89 1021.4
20260509131547 45 0 0.0 0.0 0.00 0.00 0.00 89 1021.4
20260509131037 45 0 0.0 0.0 0.00 0.00 0.00 88 1021.3
20260509130538 45 0 0.0 0.0 0.00 0.00 0.00 88 1021.3
20260509130054 45 0 0.0 0.0 0.00 0.00 0.00 88 1021.3
20260509125538 45 0 0.0 0.0 0.00 0.00 0.00 89 1021.3
20260509125038 45 0 0.0 0.0 0.00 0.00 0.00 89 1021.3
20260509124552 46 0 0.0 0.0 0.00 0.00 0.00 88 1021.5
20260509124041 46 0 0.0 0.0 0.00 0.00 0.00 88 1021.6
20260509123541 46 0 0.0 0.0 0.00 0.00 0.00 88 1021.6
20260509123051 46 0 0.0 0.0 0.00 0.00 0.00 88 1021.6
20260509122538 46 0 0.0 0.0 0.00 0.00 0.00 88 1021.6
20260509122037 46 0 0.0 0.0 0.00 0.00 0.00 89 1021.5
20260509121614 46 0 0.0 0.0 0.00 0.00 0.00 88 1021.4
20260509121038 46 0 0.0 0.0 0.00 0.00 0.00 88 1021.4
20260509120537 46 0 0.0 0.0 0.00 0.00 0.00 88 1021.4
20260509120049 46 0 0.0 0.0 0.00 0.00 0.00 88 1021.4
20260509115537 46 0 0.0 0.0 0.00 0.00 0.00 88 1021.5
20260509115038 46 0 0.0 0.0 0.00 0.00 0.00 88 1021.5
20260509114557 46 0 0.0 0.0 0.00 0.00 0.00 87 1021.5
20260509114038 46 0 0.0 0.0 0.00 0.00 0.00 88 1021.4
20260509113537 46 0 0.0 0.0 0.00 0.00 0.00 88 1021.5
20260509113056 46 0 0.0 0.0 0.00 0.00 0.00 87 1021.7
20260509112541 47 0 0.0 0.0 0.00 0.00 0.00 87 1021.8
20260509112041 47 0 0.0 0.0 0.00 0.00 0.00 87 1021.9
20260509111555 47 0 0.0 0.0 0.00 0.00 0.00 87 1021.9
20260509111040 47 0 0.0 0.0 0.00 0.00 0.00 87 1021.9
20260509110541 47 0 0.0 0.0 0.00 0.00 0.00 87 1022.1
20260509110050 47 0 0.0 0.0 0.00 0.00 0.00 87 1022.1
20260509105542 47 0 0.0 0.0 0.00 0.00 0.00 87 1022.1
20260509105041 47 0 0.0 0.0 0.00 0.00 0.00 86 1022.1
20260509104552 47 0 0.0 0.0 0.00 0.00 0.00 86 1022.0
20260509104037 48 0 0.0 0.0 0.00 0.00 0.00 86 1022.0
20260509103537 48 0 0.0 0.0 0.00 0.00 0.00 86 1022.0
20260509103059 48 0 0.0 0.0 0.00 0.00 0.00 86 1022.0
20260509102540 48 0 0.0 0.0 0.00 0.00 0.00 86 1022.0
20260509102038 48 0 0.0 0.0 0.00 0.00 0.00 86 1022.0
20260509101600 48 0 0.0 0.0 0.00 0.00 0.00 86 1021.9
20260509101040 49 0 0.0 0.0 0.00 0.00 0.00 86 1022.0
20260509100538 49 0 0.0 0.0 0.00 0.00 0.00 86 1022.0
20260509100047 49 0 0.0 0.0 0.00 0.00 0.00 86 1022.0
20260509095541 49 0 0.0 0.0 0.00 0.00 0.00 86 1022.0
20260509095040 49 0 0.0 0.0 0.00 0.00 0.00 86 1022.1
20260509094553 49 0 0.0 0.0 0.00 0.00 0.00 86 1022.1
20260509094043 49 0 0.0 0.0 0.00 0.00 0.00 86 1022.1
20260509093541 50 0 0.0 0.0 0.00 0.00 0.00 86 1022.2
20260509093054 50 0 0.0 0.0 0.00 0.00 0.00 85 1022.2
20260509092540 50 0 0.0 0.0 0.00 0.00 0.00 85 1022.1
20260509092037 50 0 0.0 0.0 0.00 0.00 0.00 85 1022.2
20260509091551 50 0 0.0 0.0 0.00 0.00 0.00 85 1022.3
20260509091041 50 0 0.0 0.0 0.00 0.00 0.00 85 1022.3
20260509090541 50 0 0.0 0.0 0.00 0.00 0.00 85 1022.3
20260509090059 50 0 0.0 0.0 0.00 0.00 0.00 84 1022.4
20260509085542 50 0 0.0 0.0 0.00 0.00 0.00 84 1022.4
20260509085041 50 0 0.0 0.0 0.00 0.00 0.00 84 1022.5
20260509084559 50 0 0.0 0.0 0.00 0.00 0.00 84 1022.5
20260509084041 50 0 0.0 0.0 0.00 0.00 0.00 84 1022.5
20260509083541 51 0 0.0 0.0 0.00 0.00 0.00 83 1022.5
20260509083057 51 0 0.0 0.0 0.00 0.00 0.00 83 1022.6
20260509082537 51 0 0.0 0.0 0.00 0.00 0.00 83 1022.6
20260509082038 51 0 0.0 0.0 0.00 0.00 0.00 83 1022.6
20260509081547 51 0 0.0 0.0 0.00 0.00 0.00 82 1022.7
20260509081038 52 0 0.0 0.0 0.00 0.00 0.00 83 1022.7
20260509080545 52 0 0.0 0.0 0.00 0.00 0.00 83 1022.8
20260509080048 52 0 0.0 0.0 0.00 0.00 0.00 82 1022.7
20260509075541 52 0 0.0 0.0 0.00 0.00 0.00 82 1022.7
20260509075037 53 0 0.0 0.0 0.00 0.00 0.00 81 1022.8
20260509074553 53 0 0.0 0.0 0.00 0.00 0.00 81 1022.8
20260509074038 53 0 0.0 0.0 0.00 0.00 0.00 81 1022.8
20260509073539 53 0 0.0 0.0 0.00 0.00 0.00 81 1022.8
20260509073052 53 0 0.0 0.0 0.00 0.00 0.00 81 1022.8
20260509072539 53 0 0.0 0.0 0.00 0.00 0.00 81 1022.9
20260509072038 53 0 0.0 0.0 0.00 0.00 0.00 81 1022.9
20260509071552 54 0 0.0 0.0 0.00 0.00 0.00 80 1022.9
20260509071038 54 0 0.0 0.0 0.00 0.00 0.00 80 1023.0
20260509070539 54 0 0.0 0.0 0.00 0.00 0.00 80 1022.9
20260509070048 54 0 0.0 0.0 0.00 0.00 0.00 80 1022.9
20260509065539 54 0 0.0 0.0 0.00 0.00 0.00 80 1023.1
20260509065039 54 0 0.0 0.0 0.00 0.00 0.00 80 1023.0
20260509064549 54 0 0.0 0.0 0.00 0.00 0.00 79 1023.0
20260509064041 54 0 0.0 1.0 0.00 0.00 0.00 79 1023.0
20260509063538 54 0 0.0 1.0 0.00 0.00 0.00 79 1023.0
20260509063047 55 0 0.0 1.0 0.00 0.00 0.00 79 1022.8
20260509062541 55 0 0.0 1.0 0.00 0.00 0.00 78 1023.0
20260509062041 55 0 0.0 1.0 0.00 0.00 0.00 78 1022.9
20260509061552 55 0 0.0 1.0 0.00 0.00 0.00 77 1022.9
20260509061039 55 0 0.0 0.0 0.00 0.00 0.00 76 1022.8
20260509060538 56 0 0.0 0.0 0.00 0.00 0.00 76 1022.9
20260509060106 56 0 0.0 0.0 0.00 0.00 0.00 76 1022.9
20260509055538 56 0 0.0 0.0 0.00 0.00 0.00 75 1022.9
20260509055038 56 0 0.0 1.0 0.00 0.00 0.00 75 1022.8
20260509054551 56 0 0.0 1.0 0.00 0.00 0.00 75 1022.9
20260509054040 57 0 0.0 1.0 0.00 0.00 0.00 74 1022.8
20260509053538 57 183 0.0 1.0 0.00 0.00 0.00 74 1022.8
20260509053112 57 0 0.0 1.0 0.00 0.00 0.00 74 1022.7
20260509052540 58 0 0.0 1.0 0.00 0.00 0.00 73 1022.7
20260509052040 58 0 0.0 0.0 0.00 0.00 0.00 73 1022.7
20260509051554 58 0 0.0 0.0 0.00 0.00 0.00 72 1022.7
20260509051037 58 0 0.0 0.0 0.00 0.00 0.00 73 1022.6
20260509050542 58 0 0.0 0.0 0.00 0.00 0.00 73 1022.6
20260509050049 58 0 0.0 0.0 0.00 0.00 0.00 73 1022.5
20260509045541 58 0 0.0 0.0 0.00 0.00 0.00 73 1022.6
20260509045041 58 0 0.0 0.0 0.00 0.00 0.00 73 1022.5
20260509044626 58 0 0.0 0.0 0.00 0.00 0.00 73 1022.5
20260509044042 58 0 0.0 0.0 0.00 0.00 0.00 73 1022.4
20260509043538 58 0 0.0 0.0 0.00 0.00 0.00 73 1022.3
20260509043138 58 0 0.0 0.0 0.00 0.00 0.00 73 1022.3
20260509042541 59 0 0.0 0.0 0.00 0.00 0.00 72 1022.2
20260509042038 59 0 0.0 0.0 0.00 0.00 0.00 72 1022.3
20260509041552 59 0 0.0 0.0 0.00 0.00 0.00 72 1022.2
20260509041038 59 0 0.0 0.0 0.00 0.00 0.00 72 1022.2
20260509040537 59 0 0.0 0.0 0.00 0.00 0.00 74 1022.1
20260509040049 59 0 0.0 2.0 0.00 0.00 0.00 74 1022.1
20260509035538 59 0 0.0 2.0 0.00 0.00 0.00 73 1022.1
20260509035038 59 183 0.0 2.0 0.00 0.00 0.00 73 1022.0
20260509034551 59 0 0.0 1.0 0.00 0.00 0.00 72 1022.0
20260509034037 60 0 0.0 1.0 0.00 0.00 0.00 72 1021.9
20260509033545 60 183 0.0 1.0 0.00 0.00 0.00 71 1021.8
20260509033047 60 0 0.0 0.0 0.00 0.00 0.00 70 1021.7
20260509032541 60 0 0.0 0.0 0.00 0.00 0.00 69 1021.5
20260509032041 60 0 0.0 0.0 0.00 0.00 0.00 67 1021.5
20260509031600 61 0 0.0 0.0 0.00 0.00 0.00 67 1021.5
20260509031038 61 0 0.0 0.0 0.00 0.00 0.00 67 1021.4
20260509030538 61 0 0.0 0.0 0.00 0.00 0.00 65 1021.4
20260509030110 61 0 0.0 0.0 0.00 0.00 0.00 65 1021.3
20260509025539 61 0 0.0 0.0 0.00 0.00 0.00 64 1021.4
20260509025042 62 0 0.0 0.0 0.00 0.00 0.00 64 1021.3
20260509024549 62 0 0.0 0.0 0.00 0.00 0.00 64 1021.3
20260509024039 62 0 0.0 0.0 0.00 0.00 0.00 64 1021.3
20260509023538 62 0 0.0 0.0 0.00 0.00 0.00 64 1021.3
20260509023050 62 0 0.0 0.0 0.00 0.00 0.00 63 1021.3
20260509022540 62 0 0.0 0.0 0.00 0.00 0.00 62 1021.3
20260509022038 62 0 0.0 0.0 0.00 0.00 0.00 62 1021.3
20260509021555 62 0 0.0 3.0 0.00 0.00 0.00 62 1021.4
20260509021042 62 0 0.0 3.0 0.00 0.00 0.00 62 1021.4
20260509020539 63 0 0.0 3.0 0.00 0.00 0.00 63 1021.4
20260509020100 63 0 0.0 3.0 0.00 0.00 0.00 63 1021.5
20260509015540 63 0 0.0 2.0 0.00 0.00 0.00 63 1021.4
20260509015038 63 229 0.0 3.0 0.00 0.00 0.00 63 1021.4
20260509014549 63 0 0.0 3.0 0.00 0.00 0.00 61 1021.5
20260509014037 63 116 0.0 2.0 0.00 0.00 0.00 62 1021.5
20260509013538 63 116 0.0 2.0 0.00 0.00 0.00 62 1021.5
20260509013047 63 0 0.0 2.0 0.00 0.00 0.00 61 1021.5
20260509012542 63 0 0.0 2.0 0.00 0.00 0.00 61 1021.5
20260509012040 63 0 0.0 3.0 0.00 0.00 0.00 60 1021.6
20260509011555 64 0 0.0 4.0 0.00 0.00 0.00 59 1021.6
20260509011040 64 175 0.0 4.0 0.00 0.00 0.00 60 1021.6
20260509010537 64 171 1.0 3.0 0.00 0.00 0.00 58 1021.7
20260509010047 64 113 0.0 2.0 0.00 0.00 0.00 58 1021.7
20260509005540 64 0 0.0 3.0 0.00 0.00 0.00 57 1021.7
20260509005041 64 113 0.0 3.0 0.00 0.00 0.00 57 1021.8
20260509004557 64 0 1.0 3.0 0.00 0.00 0.00 55 1021.8
20260509004040 65 198 0.0 3.0 0.00 0.00 0.00 58 1021.8
20260509003539 65 0 0.0 5.0 0.00 0.00 0.00 56 1021.8
20260509003057 65 205 1.0 5.0 0.00 0.00 0.00 57 1021.7
20260509002540 65 202 1.0 5.0 0.00 0.00 0.00 57 1021.8
20260509002039 66 157 1.0 8.0 0.00 0.00 0.00 57 1021.9
20260509001557 66 175 3.0 8.0 0.00 0.00 0.00 55 1021.8
20260509001039 67 152 1.0 4.0 0.00 0.00 0.00 57 1021.8
20260509000537 66 352 1.0 4.0 0.00 0.00 0.00 56 1021.8
20260509000054 65 85 1.0 5.0 0.00 0.00 0.00 59 1021.8
20260508235541 64 171 1.0 6.0 0.00 0.00 0.00 56 1021.8
20260508235041 65 153 3.0 6.0 0.00 0.00 0.00 55 1021.8
20260508234557 65 321 1.0 6.0 0.00 0.00 0.00 58 1021.7
20260508234040 65 0 1.0 6.0 0.00 0.00 0.00 55 1021.7
20260508233540 65 200 0.0 2.0 0.00 0.00 0.00 55 1021.9
20260508233048 65 200 1.0 3.0 0.00 0.00 0.00 55 1021.9
20260508232543 65 343 1.0 3.0 0.00 0.00 0.00 56 1021.9
20260508232041 65 0 1.0 5.0 0.00 0.00 0.00 56 1022.0
20260508231552 65 304 1.0 5.0 0.00 0.00 0.00 54 1021.9
20260508231040 65 189 0.0 5.0 0.00 0.00 0.00 55 1022.0
20260508230541 65 0 2.0 5.0 0.00 0.00 0.00 54 1022.0
20260508230043 65 182 1.0 5.0 0.00 0.00 0.00 54 1022.0
20260508225540 66 68 1.0 5.0 0.00 0.00 0.00 53 1022.1
20260508225044 66 88 1.0 5.0 0.00 0.00 0.00 55 1022.1
20260508224615 66 65 1.0 5.0 0.00 0.00 0.00 55 1022.1
20260508224039 65 61 1.0 5.0 0.00 0.00 0.00 59 1022.0
20260508223539 65 0 2.0 8.0 0.00 0.00 0.00 58 1022.1
20260508223052 64 149 2.0 8.0 0.00 0.00 0.00 55 1022.1
20260508222539 64 139 2.0 6.0 0.00 0.00 0.00 55 1022.1
20260508222039 64 174 2.0 6.0 0.00 0.00 0.00 55 1022.2
20260508221548 64 171 1.0 7.0 0.00 0.00 0.00 56 1022.2
20260508221038 64 131 3.0 9.0 0.00 0.00 0.00 56 1022.1
20260508220541 64 73 3.0 9.0 0.00 0.00 0.00 58 1022.1
20260508220056 63 88 2.0 6.0 0.00 0.00 0.00 58 1022.2
20260508215537 64 120 3.0 6.0 0.00 0.00 0.00 55 1022.1
20260508215037 64 92 2.0 8.0 0.00 0.00 0.00 56 1022.1